Weather in Svitavy

Czech Republic     49°45′25″N   16°28′28″E
temp.,
°C
wind,
m/s
gust,
m/s
humid.,
%
clouds,
%
prec.,
mm/h
press.,
hPa
HPBL,
m
23 january, sat
sat2301:00+2ese4139958 0.0 995346
04:00+4se51998100 0.0 994743
07:00+4se51798100 0.1 990662
10:00+4ssw61392100 0.1 993604
13:00+3ssw7137997 0.1 992944
16:00+1sw5888100 0.0 997437
19:00−1wsw2394100 0.0 99898
22:00−2wnw269584 0.0 999214
24 january, sun
sun2401:00−2nw279492 0.0 999292
04:00−2nnw4593100 0.0 998416
07:00−1sse0192100 0.1 99724
10:00−2nw3493100 0.6 999308
13:000nw2479100 0.7 999499
16:00−1w6117694 0.1 1000897
19:00−2w5127796 0.1 1001820
22:00−3wsw4118242 0.0 1001553
25 january, mon
mon2501:00−1n129697 0.6 1001180
04:00−3wsw25810 0.0 999203
07:00−2nw6893100 0.2 1004407
10:00−2nw6890100 0.1 1006488
13:000s345685 0.0 1001420
16:00−1ssw2567100 0.0 1001180
19:00−3wnw611884 0.0 1010454
22:00−3wnw511921 0.0 1011459
26 january, tue
tue2601:00−2wnw3792100 0.4 1006473
04:00−3nw71193100 1.1 1008760
07:00−4wnw369367 0.0 1012401
10:00−3nw5788100 0.0 1013526
13:00−1wnw71086100 0.4 1013959
16:00−2wnw598519 0.0 1015545
19:00−3wnw5128567 0.2 1015443
22:00−4wnw411919 0.0 1017382
27 january, wed
wed2701:00−4w379240 0.0 1016225
04:00−4wnw4109437 0.0 1015415
07:00−3ssw3791100 0.1 1012206
10:00−2s5893100 0.3 1011331
13:00−1wnw4778100 0.1 1014810
16:00−1wnw2691100 0.1 1013339
19:00+1nw51298100 3.9 1011552
22:000nw81297100 0.5 1014657